Погода Тивяку

Погода Тивяку : погода сейчас, прогноз погоды и архив. Всё, что Вы хотите узнать о погоде Тивяку!

Хотите узнать прогноз погоды Тивяку? Тогда Вам сюда: Погода Тивяку

Поиск расширенной информации на нашем сайте:

Другие новости

Новости СМИ2

Главная страница сайта

Новости сайта

02.10.2013

Напоминаем, что на нашем новом сайте вы можете получить высокодетализированные прогнозы погоды по пунктам России, СНГ и мира (включающие важные для авиации метеовеличины, такие как направление и скорость ветра, видимость, явления погоды, количество и форма облачности, нижняя и верхняя граница облачности), а также ознакомиться с разнообразными материалами по авиационной метеорологии и подборкой полезных ссылок на эту тему.

Сайт Метеоцентр.Азия посвящён разработке технологий оптимизации авиаметеорологического обслуживания, включая проектирование и перспективное создание нескольких автоматизированных авиаметеорологических систем:
- система выпуска высокодетальных прогностических карт явлений погоды для нижнего воздушного пространства по России и ближнему зарубежью;
- система верификации прогнозов TAF (выпускаемых синоптиками официальных АМСГ РФ и ближнего зарубежья) и AUTOTAF (выпускаемых сайтом Метеоцентр.Азия) - выявление ошибок, онлайн-сопоставление с фактической погодой METAR, автоматическое внесение коррективов в прогнозы при резком отклонении фактической погоды от прогноза, подсчёт оправдываемости прогнозов по элементам и в целом;
- система обработки, анализа и отображения авиаметеорологической информации для применения провайдерами метеорологической информации.


Погода Тивяку - сегодня

Время (UTC), дата Ветер
(°,м/с) 
Видим.   Явления Облачность Т
(°С)
Тd
(°С)
f(%) Тe
(°С)
Pmin
(гПа)
dP
(гПа)
Po
(мм)
O2
(г/м3)
Тmin Tmax R s Состояние
почвы
15 26.03.17 тихо ()   20000 м    9/9 600 м кучево-дожд. 
[Cb cap]
-5.1 -5.6 96 -5  1018.5  -0.2  726  299           
18 26.03.17 тихо ()   20000 м  слаб. ливневой снег  10/10 600 м кучево-дожд. 
[Cb cap]
-5.1 -5.8 95 -5  1018  -0.8  725  298           
21 26.03.17 тихо ()   20000 м  {ливн. осадки}  10/10 600 м кучево-дожд. 
[Cb cap]
-6 -6.8 94 -6  1018  -0.2  725  299  -6.7    0.8  41  равномерный
сухой снег
100% 
00 27.03.17 тихо ()   20000 м  {ливн. осадки}  10/10 600 м кучево-дожд. 
[Cb cap]
-1.5 -4.1 82 -2  1017.2  0.1  725  294           
03 27.03.17 080 (В) 20000 м  слаб. ливневой снег  10/10 600 м кучево-дожд. 
[Cb cap]
-0.9 -3.3 84 1016.1  -0.9  725  293           
06 27.03.17 080 (В) 1000 м  ливневой снег  10/10 600 м кучево-дожд. 
[Cb cap]
-1.3 -2.6 91 -1  1015.2  -1  724  293           
09 27.03.17 тихо ()   20000 м  {ливн. осадки}  3/3 600 м кучево-дожд. 
[Cb cap]
-2.9 -3.6 95 -3  1015.3  -0.2  724  295    +2.9     
12 27.03.17 тихо ()   20000 м  {ливн. осадки}  3/3 600 м кучево-дожд. 
[Cb cap]
-7.1 -7.7 95 -7  1016.8  0.7  724  300           
15 27.03.17 тихо ()   20000 м    6/6 600 м кучево-дожд. 
[Cb cap]
-9.8 -10.3 96 -10  1016.9  -0.5  724  303           
18 27.03.17 тихо ()   20000 м    6/6 600 м кучево-дожд. 
[Cb cap]
-9.8 -10.6 94 -10  1016.6  -0.5  724  303           
21 27.03.17 тихо ()   20000 м    6/3 600 м кучево-дожд., средняя 
[Cb cap|Ac trans]
-11.2 -12.3 92 -11  1016.6  -0.2  723  305  -11.2      43  равномерный
сухой снег
100% 
00 28.03.17 тихо ()   20000 м    8/8 600 м кучево-дожд. 
[Cb cap]
-5.1 -7.2 85 -5  1014.9  -0.4  723  298  -11.3         
03 28.03.17 200 (Ю) 20000 м    6/6 600 м кучево-дожд. 
[Cb cap]
+2 -4.8 61 +1  1011.6  -1.8  722  289           
06 28.03.17 260 (З) 20000 м  {ливн. осадки}  8/8 600 м кучево-дожд. 
[Cb cap]
+1.9 -8.4 46 +1  1011.4  -0.3  722  289           
09 28.03.17 330 (СЗ) 20000 м    6/6 600 м кучево-дожд. 
[Cb cap]
+1.6 -10 42 +2  1012.2  -0.3  722  290    +4.9  0.2     
12 28.03.17 тихо ()   20000 м    4/4 600 м кучево-дожд. 
[Cb cap]
-5 -8.7 75 -5  1015.2  1.6  723  298           
15 28.03.17 тихо ()   20000 м    3/3 600 м кучево-дожд. 
[Cb cap]
-7.8 -9.6 87 -8  1015.6  0.1  723  301           
18 28.03.17 тихо ()   20000 м    ясно 600 м 
-12.1 -13.1 92 -12  1016.8  0.3  723  306           
21 28.03.17 тихо ()   20000 м    6/4 600 м кучево-дожд., средняя 
[Cb cap|Ac trans]
-14.7 -15.8 91 -15  1018.4  724  310  -14.7      41  равномерный
сухой снег
100% 
00 29.03.17 110 (В) 20000 м    6/0 средняя, верхняя 
[Ac cast|Ci fib]
-3.1 -9.8 60 -3  1016.9  0.8  725  296           
03 29.03.17 360 (С) 20000 м    8/8 600 м кучево-дожд. 
[Cb cap]
+4.1 -8.7 39 +5  1014.8  -0.7  724  288           
06 29.03.17 030 (СВ) 20000 м    8/8 600 м кучево-дожд. 
[Cb cap]
+3.4 -9.1 39 +4  1014.8  -0.2  724  289           
09 29.03.17 360 (С) 20000 м    3/3 600 м кучево-дожд. 
[Cb cap]
+1.3 -10.9 40 +1  1016.4  1.2  725  292    +5.3       
12 29.03.17 260 (З) 20000 м    ясно 
-5.3 -8.9 76 -5  1019.3  1.6  726  299           
15 29.03.17 тихо ()   20000 м    ясно 
-9.9 -11.3 89 -10  1020.9  0.6  727  305           
Время (UTC), дата Ветер
(°,м/с) 
Видим.   Явления Облачность Т
(°С)
Тd
(°С)
f(%) Тe
(°С)
Pmin
(гПа)
dP
(гПа)
Po
(мм)
O2
(г/м3)
Тmin Tmax R s Состояние
почвы

Для получения пояснительной информации подведите курсор к названию столбца.

ПОГОДА Тивяку - архив

Всё, что Вы хотите узнать о погоде Тивяку - удобно и подробно!

Выберите нужную дату (начиная с 1 января 2015* года) и нажмите кнопку "Найти".
Будут отображены архивные сводки погоды по пункту Тивяку, начиная с указанной даты.


Отображать данные в формате CSV (для использования в таблицах Excel)


Внимание! Наш архив погоды предназначен исключительно для личного некоммерческого использования в познавательных целях. Если Вам необходимы официальные справки о состоянии погоды (для производственных, юридических, коммерческих и т.п. целей), обращайтесь в органы Росгидромета.

*Примечание: данная дата относится к архиву по метеостанциям СССР (Россия, СНГ, Балтия).
Архив по метеостанциям Зарубежной Европы и Азии (кроме Китая) хранится 10 дней, по другим регионам земного шара (Китай, Африка, Америка, Австралия, Океания) - 1 день.

Тивяку - район местоположения метеостанции


Название, широта, долгота, высота метеостанции:
Тивяку 48.6°ш. 137.1°д. 403 м над ур. моря [Российская Федерация]

Дополнительная информация

В oтличие oт бoльшинства пoгoдных сайтoв мы публикуем пoдрoбную метеoинфoрмацию в детальнoм прoфессиoнальнoм фoрмате.

Характеристики температуры и влажнoсти вoздуха измеряются на высoте 2 м в тени вдали oт зданий и деревьев.
Скoрoсть ветра измеряется на высoте 10 м (на урoвне рoста челoвека скoрoсть ветра ниже в 1.5-2 раза). Если метеoстанция нахoдится в гoрoде или в лесу, тo скoрoсть ветра занижена на 2-4 м/с пo сравнению с oткрытым местoм. Скoрoсть ветра над акватoриями крупных рек и oзёр, а также на вершинах хoлмoв на 2-5 м/с выше, чем в oбычных услoвиях.
Атмoсфернoе давление в разных тoчках местнoсти мoжет значительнo oтличаться oт давления на метеoстанции, в зависимoсти oт услoвий рельефа (при пoдъёме на 10 м давление пoнижается примернo на 1 мм рт.ст.).